TimeEST,TemperatureF,Dew PointF,Humidity,Sea Level PressureIn,VisibilityMPH,Wind Direction,Wind SpeedMPH,Gust SpeedMPH,PrecipitationIn,Events,Conditions,WindDirDegrees,DateUTC
12:15 AM,42.8,28.4,57,29.88,10.0,Calm,Calm,-,N/A,,Clear,0,2012-12-19 05:15:00
12:35 AM,41.0,28.4,61,29.88,10.0,Calm,Calm,-,N/A,,Clear,0,2012-12-19 05:35:00
12:55 AM,39.2,30.2,70,29.88,10.0,Calm,Calm,-,N/A,,Clear,0,2012-12-19 05:55:00
1:15 AM,37.4,28.4,70,29.88,10.0,Calm,Calm,-,N/A,,Clear,0,2012-12-19 06:15:00
1:35 AM,35.6,28.4,75,29.89,10.0,Calm,Calm,-,N/A,,Clear,0,2012-12-19 06:35:00
1:55 AM,33.8,28.4,81,29.89,10.0,Calm,Calm,-,N/A,,Clear,0,2012-12-19 06:55:00
2:15 AM,35.6,28.4,75,29.90,10.0,Calm,Calm,-,N/A,,Clear,0,2012-12-19 07:15:00
2:35 AM,32.0,28.4,87,29.91,10.0,Calm,Calm,-,N/A,,Clear,0,2012-12-19 07:35:00
2:55 AM,32.0,28.4,87,29.92,10.0,Calm,Calm,-,N/A,,Clear,0,2012-12-19 07:55:00
3:15 AM,33.8,28.4,81,29.92,10.0,Calm,Calm,-,N/A,,Clear,0,2012-12-19 08:15:00
3:35 AM,33.8,28.4,81,29.92,10.0,Calm,Calm,-,N/A,,Clear,0,2012-12-19 08:35:00
3:55 AM,30.2,28.4,93,29.92,10.0,Calm,Calm,-,N/A,,Clear,0,2012-12-19 08:55:00
4:15 AM,33.8,28.4,81,29.92,10.0,Calm,Calm,-,N/A,,Clear,0,2012-12-19 09:15:00
4:35 AM,32.0,30.2,93,29.93,10.0,Calm,Calm,-,N/A,,Clear,0,2012-12-19 09:35:00
4:55 AM,33.8,30.2,87,29.93,10.0,Calm,Calm,-,N/A,,Clear,0,2012-12-19 09:55:00
5:15 AM,33.8,28.4,81,29.93,10.0,Calm,Calm,-,N/A,,Clear,0,2012-12-19 10:15:00
5:35 AM,30.2,30.2,100,29.94,10.0,Calm,Calm,-,N/A,,Clear,0,2012-12-19 10:35:00
5:55 AM,32.0,30.2,93,29.94,10.0,Calm,Calm,-,N/A,,Clear,0,2012-12-19 10:55:00
6:15 AM,30.2,30.2,100,29.95,10.0,WSW,3.5,-,N/A,,Clear,240,2012-12-19 11:15:00
6:35 AM,35.6,30.2,81,29.95,10.0,WSW,5.8,-,N/A,,Clear,240,2012-12-19 11:35:00
6:55 AM,44.6,28.4,53,29.96,10.0,WSW,5.8,-,N/A,,Clear,240,2012-12-19 11:55:00
7:15 AM,42.8,30.2,61,29.97,10.0,WSW,6.9,-,N/A,,Clear,240,2012-12-19 12:15:00
7:35 AM,46.4,30.2,53,29.98,10.0,West,4.6,-,N/A,,Clear,260,2012-12-19 12:35:00
7:55 AM,48.2,33.8,58,29.98,10.0,West,3.5,-,N/A,,Clear,270,2012-12-19 12:55:00
8:15 AM,50.0,33.8,54,29.99,10.0,West,3.5,-,N/A,,Clear,280,2012-12-19 13:15:00
8:35 AM,51.8,33.8,50,30.00,10.0,WSW,3.5,-,N/A,,Clear,250,2012-12-19 13:35:00
8:55 AM,53.6,33.8,47,30.00,10.0,WSW,4.6,-,N/A,,Clear,250,2012-12-19 13:55:00
9:15 AM,53.6,33.8,47,30.00,10.0,West,5.8,-,N/A,,Clear,260,2012-12-19 14:15:00
9:35 AM,55.4,35.6,47,30.01,10.0,WSW,4.6,-,N/A,,Clear,240,2012-12-19 14:35:00
9:55 AM,55.4,35.6,47,30.01,10.0,West,5.8,-,N/A,,Clear,270,2012-12-19 14:55:00
10:15 AM,57.2,33.8,41,30.01,10.0,WSW,6.9,16.1,N/A,,Clear,240,2012-12-19 15:15:00
10:35 AM,59.0,35.6,42,30.01,10.0,WSW,8.1,17.3,N/A,,Clear,240,2012-12-19 15:35:00
10:55 AM,60.8,33.8,36,30.02,10.0,WSW,5.8,18.4,N/A,,Clear,250,2012-12-19 15:55:00
11:15 AM,60.8,33.8,36,30.02,10.0,West,8.1,-,N/A,,Clear,270,2012-12-19 16:15:00
11:35 AM,62.6,33.8,34,30.02,10.0,West,8.1,-,N/A,,Clear,260,2012-12-19 16:35:00
11:55 AM,62.6,30.2,30,30.01,10.0,WNW,8.1,-,N/A,,Clear,300,2012-12-19 16:55:00
12:15 PM,64.4,30.2,28,30.01,10.0,WSW,5.8,-,N/A,,Clear,240,2012-12-19 17:15:00
12:35 PM,64.4,30.2,28,30.00,10.0,West,5.8,-,N/A,,Clear,270,2012-12-19 17:35:00
12:55 PM,64.4,28.4,26,30.00,10.0,West,6.9,-,N/A,,Clear,270,2012-12-19 17:55:00
1:15 PM,64.4,28.4,26,30.00,10.0,West,5.8,-,N/A,,Clear,260,2012-12-19 18:15:00
1:35 PM,66.2,28.4,24,29.99,10.0,WSW,5.8,-,N/A,,Clear,240,2012-12-19 18:35:00
1:55 PM,64.4,28.4,26,29.99,10.0,Calm,Calm,-,N/A,,Clear,0,2012-12-19 18:55:00
2:15 PM,64.4,28.4,26,29.99,10.0,Calm,Calm,-,N/A,,Clear,0,2012-12-19 19:15:00
2:35 PM,64.4,26.6,24,30.00,10.0,West,3.5,-,N/A,,Clear,270,2012-12-19 19:35:00
2:55 PM,64.4,28.4,26,29.99,10.0,WSW,3.5,-,N/A,,Clear,250,2012-12-19 19:55:00
3:15 PM,66.2,26.6,23,30.00,10.0,WSW,3.5,-,N/A,,Clear,240,2012-12-19 20:15:00
3:35 PM,64.4,24.8,22,30.01,10.0,West,3.5,-,N/A,,Clear,260,2012-12-19 20:35:00
3:55 PM,64.4,26.6,24,30.02,10.0,WSW,5.8,-,N/A,,Clear,250,2012-12-19 20:55:00
4:15 PM,62.6,24.8,24,30.02,10.0,WSW,3.5,-,N/A,,Clear,250,2012-12-19 21:15:00
4:35 PM,62.6,26.6,26,30.03,10.0,Calm,Calm,-,N/A,,Clear,0,2012-12-19 21:35:00
4:55 PM,60.8,26.6,27,30.04,10.0,Calm,Calm,-,N/A,,Clear,0,2012-12-19 21:55:00
5:15 PM,57.2,28.4,33,30.04,10.0,Calm,Calm,-,N/A,,Clear,0,2012-12-19 22:15:00
5:35 PM,55.4,28.4,36,30.05,10.0,WNW,3.5,-,N/A,,Clear,290,2012-12-19 22:35:00
5:55 PM,48.2,30.2,50,30.06,10.0,NW,4.6,-,N/A,,Clear,310,2012-12-19 22:55:00
6:15 PM,46.4,30.2,53,30.06,10.0,WNW,6.9,-,N/A,,Clear,300,2012-12-19 23:15:00
6:35 PM,48.2,32.0,54,30.07,10.0,Calm,Calm,-,N/A,,Clear,0,2012-12-19 23:35:00
6:55 PM,48.2,32.0,54,30.08,10.0,Calm,Calm,-,N/A,,Clear,0,2012-12-19 23:55:00
7:15 PM,46.4,32.0,57,30.09,10.0,Calm,Calm,-,N/A,,Clear,0,2012-12-20 00:15:00
7:35 PM,46.4,33.8,62,30.09,10.0,Calm,Calm,-,N/A,,Clear,0,2012-12-20 00:35:00
7:55 PM,44.6,33.8,66,30.10,10.0,Calm,Calm,-,N/A,,Clear,0,2012-12-20 00:55:00
8:15 PM,44.6,33.8,66,30.11,10.0,Calm,Calm,-,N/A,,Clear,0,2012-12-20 01:15:00
8:35 PM,42.8,33.8,70,30.12,10.0,Calm,Calm,-,N/A,,Clear,0,2012-12-20 01:35:00
8:55 PM,42.8,33.8,70,30.11,10.0,North,3.5,-,N/A,,Clear,350,2012-12-20 01:55:00
9:15 PM,41.0,33.8,76,30.11,10.0,Calm,Calm,-,N/A,,Clear,0,2012-12-20 02:15:00
9:35 PM,41.0,33.8,76,30.12,10.0,Calm,Calm,-,N/A,,Clear,0,2012-12-20 02:35:00
9:55 PM,39.2,33.8,81,30.13,10.0,Calm,Calm,-,N/A,,Clear,0,2012-12-20 02:55:00
10:15 PM,39.2,33.8,81,30.13,10.0,Calm,Calm,-,N/A,,Clear,0,2012-12-20 03:15:00
10:35 PM,39.2,33.8,81,30.14,10.0,Calm,Calm,-,N/A,,Clear,0,2012-12-20 03:35:00
10:55 PM,39.2,33.8,81,30.14,10.0,Calm,Calm,-,N/A,,Clear,0,2012-12-20 03:55:00
11:15 PM,37.4,33.8,87,30.14,10.0,Calm,Calm,-,N/A,,Clear,0,2012-12-20 04:15:00
11:35 PM,37.4,33.8,87,30.15,10.0,Calm,Calm,-,N/A,,Clear,0,2012-12-20 04:35:00
11:55 PM,39.2,33.8,81,30.15,10.0,Calm,Calm,-,N/A,,Clear,0,2012-12-20 04:55:00